Flag for Venezuela Weather past 2 weeks in Caracas, Venezuela

Now
84 °F

Scattered clouds.


Feels Like: 92 °F
Forecast: N/A
Wind: 3 mph from Northeast

Location: Caracas / Maiquetia Aerop. Intl. Simon Bolivar

Current Time: Jul 30, 2015 at 4:31:55 PM

Latest Report: Jul 30, 2015 at 3:30 PM


Visibility: N/A

Pressure: 29.89 "Hg (27.07 "Hg at 875m altitude)

Humidity: 74%

Dew point: 75 °F

Location of CaracasLocation

Historic Weather in Caracas — Graph

°F

Caracas temperature yesterday

Maximum temperature yesterday: 88 °F (at 2:30 PM)
Minimum temperature yesterday: 79 °F (at 12:30 AM)
Average temperature yesterday: 83 °F

Past Weeks' High & Low Weather Summary

 TemperatureHumidityPressure
High91 °F (Jul 23, 1:30 PM)94% (Jul 17, 8:30 PM)30.01 "Hg (Jul 17, 8:30 PM)
Low75 °F (Jul 16, 1:30 AM)49% (Jul 26, 1:30 PM)29.80 "Hg (Jul 15, 9:30 PM)
Average82 °F78%29.91 "Hg
* Reported Jul 15 3:30 PM — Jul 30 3:30 PM, Caracas, Weather by CustomWeather, © 2015

Note: Actual official high and low records may vary slightly from our data, if they occured in-between our weather recording intervals... More about our weather records

Advertising

Caracas weather history for previous 24 hours

 ConditionsComfort  
Time TempWeatherWind HumidityBarometerVisibility
3:30 PM
Thu, Jul 30
84 °FScattered clouds.3 mph74%29.89 "HgN/A
2:30 PM86 °FScattered clouds.5 mph75%29.92 "HgN/A
1:30 PM84 °FScattered clouds.2 mph66%29.92 "HgN/A
12:30 PM84 °FPassing clouds.3 mph70%29.95 "HgN/A
11:30 AM86 °FScattered clouds.5 mph66%29.95 "HgN/A
10:30 AM84 °FPassing clouds.2 mph70%29.95 "HgN/A
9:30 AM84 °FPassing clouds.5 mph66%29.92 "HgN/A
8:30 AM82 °FPassing clouds.3 mph79%29.92 "HgN/A
7:30 AM79 °FPassing clouds.No wind74%29.92 "HgN/A
6:30 AM79 °FScattered clouds.No wind84%29.89 "HgN/A
5:30 AM79 °FScattered clouds.No wind84%29.89 "HgN/A
4:30 AM79 °FPassing clouds.No wind84%29.89 "HgN/A
2:30 AM79 °FPassing clouds.1 mph89%29.89 "HgN/A
1:30 AM81 °FPassing clouds.No wind84%29.89 "HgN/A
12:30 AM79 °FPassing clouds.No wind84%29.92 "HgN/A
11:30 PM
Wed, Jul 29
79 °FPassing clouds.No wind79%29.95 "HgN/A
10:30 PM79 °FPassing clouds.No wind84%29.95 "HgN/A
9:30 PM81 °FPassing clouds.5 mph79%29.92 "HgN/A
8:30 PM81 °FPassing clouds.5 mph79%29.92 "HgN/A
6:30 PM84 °FPassing clouds.7 mph79%29.86 "HgN/A
5:30 PM86 °FPassing clouds.6 mph70%29.86 "HgN/A
4:30 PM86 °FPassing clouds.7 mph75%29.86 "HgN/A
Weather by CustomWeather, © 2015

See weather overviewHow to use our weather pages